Time,TemperatureF,DewpointF,PressureIn,WindDirection,WindDirectionDegrees,WindSpeedMPH,WindSpeedGustMPH,Humidity,HourlyPrecipIn,Conditions,Clouds,dailyrainin,SolarRadiationWatts/m^2,SoftwareType,DateUTC
2013-02-06 00:22:00,7.0,4.0,-100.00,East,82,1.0,4.0,86,-99.99,,,0.00,0.000000,,2013-02-06 07:22:00,
2013-02-06 01:21:00,5.0,1.0,-100.00,South,183,0.0,4.0,82,-99.99,,,0.00,0.000000,,2013-02-06 08:21:00,
2013-02-06 02:21:00,5.0,2.0,-100.00,NE,45,1.0,3.0,85,-99.99,,,0.00,0.000000,,2013-02-06 09:21:00,
2013-02-06 03:21:00,3.0,-1.0,-100.00,ENE,70,1.0,3.0,82,-99.99,,,0.00,0.000000,,2013-02-06 10:21:00,
2013-02-06 04:22:00,1.0,-4.0,-100.00,North,8,1.0,2.0,79,-99.99,,,0.00,0.000000,,2013-02-06 11:22:00,
2013-02-06 04:32:00,1.0,-4.0,-100.00,North,8,1.0,2.0,79,-99.99,,,0.00,0.000000,,2013-02-06 11:32:00,
2013-02-06 05:22:00,0.0,-5.0,-100.00,NNE,14,2.0,3.0,80,-99.99,,,0.00,0.000000,,2013-02-06 12:22:00,
2013-02-06 06:22:00,1.0,-3.0,-100.00,SW,218,0.0,4.0,81,-99.99,,,0.00,0.000000,,2013-02-06 13:22:00,
2013-02-06 07:22:00,-1.0,-6.0,-100.00,North,1,0.0,3.0,79,-99.99,,,0.00,0.000000,,2013-02-06 14:22:00,
2013-02-06 08:11:00,5.0,0.0,-100.00,NNE,27,1.0,2.0,80,-99.99,,,0.00,11.000000,,2013-02-06 15:11:00,
2013-02-06 08:21:00,5.0,0.0,-100.00,NNE,27,1.0,2.0,80,-99.99,,,0.00,11.000000,,2013-02-06 15:21:00,
2013-02-06 09:21:00,13.0,9.0,-100.00,SSE,147,0.0,2.0,85,-99.99,,,0.00,53.000000,,2013-02-06 16:21:00,
2013-02-06 09:32:00,13.0,9.0,-100.00,SSE,147,0.0,2.0,85,-99.99,,,0.00,53.000000,,2013-02-06 16:32:00,
2013-02-06 10:21:00,22.0,19.0,-100.00,SSW,193,0.0,2.0,87,-99.99,,,0.00,159.000000,,2013-02-06 17:21:00,
2013-02-06 10:32:00,22.0,19.0,-100.00,SSW,193,0.0,2.0,87,-99.99,,,0.00,159.000000,,2013-02-06 17:32:00,
2013-02-06 10:42:00,22.0,19.0,-100.00,SSW,193,0.0,2.0,87,-99.99,,,0.00,159.000000,,2013-02-06 17:42:00,
2013-02-06 10:52:00,22.0,19.0,-100.00,SSW,193,0.0,2.0,87,-99.99,,,0.00,159.000000,,2013-02-06 17:52:00,
2013-02-06 11:23:00,26.0,19.0,-100.00,South,184,4.0,6.0,73,0.00,,,0.00,212.000000,,2013-02-06 18:23:00,
2013-02-06 11:32:00,26.0,19.0,-100.00,South,184,4.0,6.0,73,0.00,,,0.00,212.000000,,2013-02-06 18:32:00,
2013-02-06 11:42:00,26.0,19.0,-100.00,South,184,4.0,6.0,73,0.00,,,0.00,212.000000,,2013-02-06 18:42:00,
2013-02-06 11:52:00,26.0,19.0,-100.00,South,184,4.0,6.0,73,0.00,,,0.00,212.000000,,2013-02-06 18:52:00,
2013-02-06 12:21:00,33.0,20.0,-100.00,ESE,115,2.0,6.0,58,0.00,,,0.00,283.000000,,2013-02-06 19:21:00,
2013-02-06 12:32:00,33.0,20.0,-100.00,ESE,115,2.0,6.0,58,0.00,,,0.00,283.000000,,2013-02-06 19:32:00,
2013-02-06 12:42:00,33.0,20.0,-100.00,ESE,115,2.0,6.0,58,0.00,,,0.00,283.000000,,2013-02-06 19:42:00,
2013-02-06 12:52:00,33.0,20.0,-100.00,ESE,115,2.0,6.0,58,0.00,,,0.00,283.000000,,2013-02-06 19:52:00,
2013-02-06 13:21:00,32.0,17.0,-100.00,SSE,153,7.0,11.0,53,0.00,,,0.00,249.000000,,2013-02-06 20:21:00,
2013-02-06 13:32:00,32.0,17.0,-100.00,SSE,153,7.0,11.0,53,0.00,,,0.00,249.000000,,2013-02-06 20:32:00,
2013-02-06 13:42:00,32.0,17.0,-100.00,SSE,153,7.0,11.0,53,0.00,,,0.00,249.000000,,2013-02-06 20:42:00,
2013-02-06 13:52:00,32.0,17.0,-100.00,SSE,153,7.0,11.0,53,0.00,,,0.00,249.000000,,2013-02-06 20:52:00,
2013-02-06 14:21:00,33.0,20.0,-100.00,South,188,8.0,12.0,59,0.00,,,0.00,272.000000,,2013-02-06 21:21:00,
2013-02-06 14:32:00,33.0,20.0,-100.00,South,188,8.0,12.0,59,0.00,,,0.00,272.000000,,2013-02-06 21:32:00,
2013-02-06 14:42:00,33.0,20.0,-100.00,South,188,8.0,12.0,59,0.00,,,0.00,272.000000,,2013-02-06 21:42:00,
2013-02-06 14:51:00,33.0,20.0,-100.00,South,188,8.0,12.0,59,0.00,,,0.00,272.000000,,2013-02-06 21:51:00,
2013-02-06 15:21:00,32.0,25.0,-100.00,SSE,147,6.0,12.0,74,0.00,,,0.00,200.000000,,2013-02-06 22:21:00,
2013-02-06 15:31:00,32.0,25.0,-100.00,SSE,147,6.0,12.0,74,0.00,,,0.00,200.000000,,2013-02-06 22:31:00,
2013-02-06 15:42:00,32.0,25.0,-100.00,SSE,147,6.0,12.0,74,0.00,,,0.00,200.000000,,2013-02-06 22:42:00,
2013-02-06 15:52:00,32.0,25.0,-100.00,SSE,147,6.0,12.0,74,0.00,,,0.00,200.000000,,2013-02-06 22:52:00,
2013-02-06 16:21:00,30.0,25.0,-100.00,SSE,167,7.0,11.0,81,0.00,,,0.00,122.000000,,2013-02-06 23:21:00,
2013-02-06 16:32:00,30.0,25.0,-100.00,SSE,167,7.0,11.0,81,0.00,,,0.00,122.000000,,2013-02-06 23:32:00,
2013-02-06 16:42:00,30.0,25.0,-100.00,SSE,167,7.0,11.0,81,0.00,,,0.00,122.000000,,2013-02-06 23:42:00,
2013-02-06 16:52:00,30.0,25.0,-100.00,SSE,167,7.0,11.0,81,0.00,,,0.00,122.000000,,2013-02-06 23:52:00,
2013-02-06 17:21:00,28.0,26.0,-100.00,SSW,202,5.0,13.0,92,0.00,,,0.00,38.000000,,2013-02-07 00:21:00,
2013-02-06 17:32:00,28.0,26.0,-100.00,SSW,202,5.0,13.0,92,0.00,,,0.00,38.000000,,2013-02-07 00:32:00,
2013-02-06 17:42:00,28.0,26.0,-100.00,SSW,202,5.0,13.0,92,0.00,,,0.00,38.000000,,2013-02-07 00:42:00,
2013-02-06 17:51:00,28.0,26.0,-100.00,SSW,202,5.0,13.0,92,0.00,,,0.00,38.000000,,2013-02-07 00:51:00,
2013-02-06 18:21:00,26.0,23.0,-100.00,NNW,348,4.0,14.0,88,0.00,,,0.00,5.000000,,2013-02-07 01:21:00,
2013-02-06 18:32:00,26.0,23.0,-100.00,NNW,348,4.0,14.0,88,0.00,,,0.00,5.000000,,2013-02-07 01:32:00,
2013-02-06 18:41:00,26.0,23.0,-100.00,NNW,348,4.0,14.0,88,0.00,,,0.00,5.000000,,2013-02-07 01:41:00,
2013-02-06 18:52:00,26.0,23.0,-100.00,NNW,348,4.0,14.0,88,0.00,,,0.00,5.000000,,2013-02-07 01:52:00,
2013-02-06 19:21:00,25.0,23.0,-100.00,South,188,4.0,6.0,93,0.00,,,0.00,0.000000,,2013-02-07 02:21:00,
2013-02-06 19:32:00,25.0,23.0,-100.00,South,188,4.0,6.0,93,0.00,,,0.00,0.000000,,2013-02-07 02:32:00,
2013-02-06 19:41:00,25.0,23.0,-100.00,South,188,4.0,6.0,93,0.00,,,0.00,0.000000,,2013-02-07 02:41:00,
2013-02-06 19:51:00,25.0,23.0,-100.00,South,188,4.0,6.0,93,0.00,,,0.00,0.000000,,2013-02-07 02:51:00,
2013-02-06 20:21:00,24.0,22.0,-100.00,WNW,300,3.0,7.0,93,0.00,,,0.00,0.000000,,2013-02-07 03:21:00,
2013-02-06 20:31:00,24.0,22.0,-100.00,WNW,300,3.0,7.0,93,0.00,,,0.00,0.000000,,2013-02-07 03:31:00,
2013-02-06 20:42:00,24.0,22.0,-100.00,WNW,300,3.0,7.0,93,0.00,,,0.00,0.000000,,2013-02-07 03:42:00,
2013-02-06 20:52:00,24.0,22.0,-100.00,WNW,300,3.0,7.0,93,0.00,,,0.00,0.000000,,2013-02-07 03:52:00,
2013-02-06 21:22:00,22.0,17.0,-100.00,South,180,1.0,12.0,80,0.00,,,0.00,0.000000,,2013-02-07 04:22:00,
2013-02-06 21:32:00,22.0,17.0,-100.00,South,180,1.0,12.0,80,0.00,,,0.00,0.000000,,2013-02-07 04:32:00,
2013-02-06 21:41:00,22.0,17.0,-100.00,South,180,1.0,12.0,80,0.00,,,0.00,0.000000,,2013-02-07 04:41:00,
2013-02-06 21:52:00,22.0,17.0,-100.00,South,180,1.0,12.0,80,0.00,,,0.00,0.000000,,2013-02-07 04:52:00,
2013-02-06 22:21:00,20.0,18.0,-100.00,South,182,3.0,7.0,91,0.00,,,0.00,0.000000,,2013-02-07 05:21:00,
2013-02-06 22:32:00,20.0,18.0,-100.00,South,182,3.0,7.0,91,0.00,,,0.00,0.000000,,2013-02-07 05:32:00,
2013-02-06 22:42:00,20.0,18.0,-100.00,South,182,3.0,7.0,91,0.00,,,0.00,0.000000,,2013-02-07 05:42:00,
2013-02-06 22:52:00,20.0,18.0,-100.00,South,182,3.0,7.0,91,0.00,,,0.00,0.000000,,2013-02-07 05:52:00,
2013-02-06 23:22:00,20.0,18.0,-100.00,WSW,244,3.0,7.0,91,0.00,,,0.00,0.000000,,2013-02-07 06:22:00,
2013-02-06 23:32:00,20.0,18.0,-100.00,WSW,244,3.0,7.0,91,0.00,,,0.00,0.000000,,2013-02-07 06:32:00,
2013-02-06 23:43:00,20.0,18.0,-100.00,WSW,244,3.0,7.0,91,0.00,,,0.00,0.000000,,2013-02-07 06:43:00,
2013-02-06 23:52:00,20.0,18.0,-100.00,WSW,244,3.0,7.0,91,0.00,,,0.00,0.000000,,2013-02-07 06:52:00,